Time,TemperatureF,DewpointF,PressureIn,WindDirection,WindDirectionDegrees,WindSpeedMPH,WindSpeedGustMPH,Humidity,HourlyPrecipIn,Conditions,Clouds,dailyrainin,SoftwareType,DateUTC
2013-04-11 01:43:00,45.2,42.7,29.95,North,359,0.0,0.0,91,0.00,,---,0.07,VWS V14.01,2013-04-11 05:43:00,
2013-04-11 16:34:00,51.1,47.0,29.90,SE,129,6.9,6.9,86,0.00,,---,0.07,VWS V14.01,2013-04-11 20:34:00,
2013-04-11 16:39:00,52.2,48.0,29.90,SW,228,10.4,11.1,85,0.00,,---,0.07,VWS V14.01,2013-04-11 20:39:00,
2013-04-11 16:44:00,51.5,47.4,29.90,ESE,117,7.6,8.8,86,0.00,,---,0.07,VWS V14.01,2013-04-11 20:44:00,
2013-04-11 16:50:00,50.8,46.8,29.90,SSE,162,6.9,6.9,86,0.00,,---,0.07,VWS V14.01,2013-04-11 20:50:00,
2013-04-11 16:55:00,50.8,47.0,29.90,North,359,0.7,14.4,87,0.00,,---,0.07,VWS V14.01,2013-04-11 20:55:00,
2013-04-11 17:00:00,50.3,46.6,29.90,SE,131,10.0,10.4,87,0.00,,---,0.07,VWS V14.01,2013-04-11 21:00:00,
2013-04-11 17:04:00,46.2,44.5,29.93,NNE,21,2.1,7.0,94,0.00,,---,0.07,VWS V14.01,2013-04-11 21:04:00,
2013-04-11 17:05:00,50.6,46.9,29.90,SE,146,6.8,13.2,87,0.00,,---,0.07,VWS V14.01,2013-04-11 21:05:00,
2013-04-11 17:10:00,50.2,46.5,29.90,North,359,7.5,7.5,87,0.00,,---,0.07,VWS V14.01,2013-04-11 21:10:00,
2013-04-11 17:15:00,50.4,46.8,29.90,SE,145,11.9,16.2,88,0.00,,---,0.07,VWS V14.01,2013-04-11 21:15:00,
2013-04-11 17:20:00,49.9,46.6,29.91,ESE,111,9.1,11.8,88,0.00,,---,0.07,VWS V14.01,2013-04-11 21:20:00,
2013-04-11 17:25:00,49.6,46.3,29.91,SSE,166,8.5,13.9,88,0.00,,---,0.07,VWS V14.01,2013-04-11 21:25:00,
2013-04-11 17:30:00,49.8,46.7,29.91,ESE,122,9.8,10.6,89,0.00,,---,0.07,VWS V14.01,2013-04-11 21:30:00,
2013-04-11 17:35:00,49.5,46.2,29.91,SSW,212,12.5,12.5,88,0.00,,---,0.07,VWS V14.01,2013-04-11 21:35:00,
2013-04-11 17:40:00,48.8,45.4,29.91,South,177,16.3,17.1,88,0.00,,---,0.07,VWS V14.01,2013-04-11 21:40:00,
2013-04-11 17:45:00,49.1,46.1,29.91,North,359,8.3,13.0,89,0.00,,---,0.07,VWS V14.01,2013-04-11 21:45:00,
2013-04-11 17:50:00,49.1,46.1,29.91,North,359,0.7,6.3,89,0.00,,---,0.07,VWS V14.01,2013-04-11 21:50:00,
2013-04-11 17:55:00,49.0,46.0,29.92,North,359,1.6,8.4,89,0.00,,---,0.07,VWS V14.01,2013-04-11 21:55:00,
2013-04-11 18:00:00,49.0,46.0,29.92,North,359,0.0,1.1,89,0.00,,---,0.07,VWS V14.01,2013-04-11 22:00:00,
2013-04-11 18:05:00,48.9,45.9,29.92,SSW,208,8.5,9.6,89,0.00,,---,0.07,VWS V14.01,2013-04-11 22:05:00,
2013-04-11 18:10:00,48.4,45.3,29.92,ESE,104,13.7,13.7,89,0.00,,---,0.07,VWS V14.01,2013-04-11 22:10:00,
2013-04-11 18:15:00,48.7,45.6,29.92,SSW,210,5.5,9.6,89,0.00,,---,0.07,VWS V14.01,2013-04-11 22:15:00,
2013-04-11 18:20:00,48.7,45.5,29.92,SE,139,9.6,11.7,89,0.00,,---,0.07,VWS V14.01,2013-04-11 22:20:00,
2013-04-11 18:25:00,47.9,44.9,29.93,SSE,162,5.2,12.4,89,0.00,,---,0.07,VWS V14.01,2013-04-11 22:25:00,
2013-04-11 18:30:00,48.9,45.9,29.93,SW,215,9.4,9.6,89,0.00,,---,0.07,VWS V14.01,2013-04-11 22:30:00,
2013-04-11 18:35:00,48.5,45.6,29.92,SE,135,8.3,14.0,90,0.00,,---,0.07,VWS V14.01,2013-04-11 22:35:00,
2013-04-11 18:40:00,48.0,45.5,29.92,SSW,198,4.2,6.9,91,0.00,,---,0.07,VWS V14.01,2013-04-11 22:40:00,
2013-04-11 18:45:00,47.8,45.5,29.92,ESE,110,4.8,8.0,92,0.00,,---,0.07,VWS V14.01,2013-04-11 22:45:00,
2013-04-11 18:50:00,47.8,45.5,29.92,SE,143,4.9,7.3,92,0.00,,---,0.07,VWS V14.01,2013-04-11 22:50:00,
2013-04-11 18:55:00,47.3,45.0,29.92,ESE,111,4.8,9.4,92,0.00,,---,0.07,VWS V14.01,2013-04-11 22:55:00,
2013-04-11 19:00:00,47.6,45.4,29.93,ESE,121,2.7,6.1,92,0.00,,---,0.07,VWS V14.01,2013-04-11 23:00:00,
2013-04-11 19:05:00,47.3,45.3,29.92,East,100,6.8,10.5,93,0.00,,---,0.07,VWS V14.01,2013-04-11 23:05:00,
2013-04-11 19:10:00,47.3,45.4,29.92,SE,146,11.0,15.0,93,0.00,,---,0.07,VWS V14.01,2013-04-11 23:10:00,
2013-04-11 19:15:00,46.2,44.5,29.92,North,359,2.5,13.7,94,0.00,,---,0.07,VWS V14.01,2013-04-11 23:15:00,
2013-04-11 19:20:00,46.8,45.1,29.93,East,100,0.7,8.6,94,0.00,,---,0.07,VWS V14.01,2013-04-11 23:20:00,
2013-04-11 19:25:00,46.2,44.5,29.93,ESE,110,7.8,8.9,94,0.00,,---,0.07,VWS V14.01,2013-04-11 23:25:00,
2013-04-11 19:30:00,46.6,44.8,29.93,North,359,3.4,12.7,94,0.00,,---,0.07,VWS V14.01,2013-04-11 23:30:00,
2013-04-11 19:35:00,46.8,45.1,29.93,SSE,150,7.8,7.8,94,0.00,,---,0.07,VWS V14.01,2013-04-11 23:35:00,
2013-04-11 19:40:00,46.9,45.2,29.93,North,359,5.5,9.0,94,0.00,,---,0.07,VWS V14.01,2013-04-11 23:40:00,
2013-04-11 19:45:00,46.3,44.5,29.93,ESE,111,15.5,15.5,94,0.00,,---,0.07,VWS V14.01,2013-04-11 23:45:00,
2013-04-11 19:50:00,46.1,44.5,29.92,ESE,122,6.8,10.1,94,0.00,,---,0.07,VWS V14.01,2013-04-11 23:50:00,
2013-04-11 19:55:00,45.7,44.1,29.92,SE,139,7.7,9.9,94,0.00,,---,0.07,VWS V14.01,2013-04-11 23:55:00,
2013-04-11 20:00:00,46.0,44.3,29.92,SSE,165,10.3,12.4,94,0.00,,---,0.07,VWS V14.01,2013-04-12 00:00:00,
2013-04-11 20:05:00,45.7,44.1,29.93,North,359,4.8,11.2,94,0.00,,---,0.07,VWS V14.01,2013-04-12 00:05:00,
2013-04-11 20:10:00,45.6,44.0,29.92,East,89,0.7,5.3,94,0.00,,---,0.07,VWS V14.01,2013-04-12 00:10:00,
2013-04-11 20:15:00,45.9,44.3,29.92,SSE,156,7.6,7.6,94,0.00,,---,0.07,VWS V14.01,2013-04-12 00:15:00,
2013-04-11 20:20:00,45.2,43.8,29.92,North,359,0.0,3.2,95,0.00,,---,0.07,VWS V14.01,2013-04-12 00:20:00,
2013-04-11 20:25:00,45.9,44.6,29.92,North,359,1.0,12.0,95,0.00,,---,0.07,VWS V14.01,2013-04-12 00:25:00,
2013-04-11 20:30:00,46.0,44.7,29.92,ESE,105,11.6,11.6,95,0.00,,---,0.07,VWS V14.01,2013-04-12 00:30:00,
2013-04-11 20:35:00,46.6,45.3,29.91,North,359,0.0,0.0,95,0.00,,---,0.07,VWS V14.01,2013-04-12 00:35:00,
2013-04-11 20:40:00,45.9,44.6,29.92,North,359,6.5,6.5,95,0.00,,---,0.07,VWS V14.01,2013-04-12 00:40:00,
2013-04-11 20:45:00,45.9,44.6,29.92,North,359,0.0,0.0,95,0.00,,---,0.07,VWS V14.01,2013-04-12 00:45:00,
2013-04-11 20:50:00,45.6,44.2,29.93,North,359,0.0,1.9,95,0.00,,---,0.07,VWS V14.01,2013-04-12 00:50:00,
2013-04-11 20:55:00,46.2,44.8,29.93,NNW,347,7.5,9.8,95,0.00,,---,0.07,VWS V14.01,2013-04-12 00:55:00,
2013-04-11 21:00:00,46.2,44.5,29.93,North,359,1.4,7.0,94,0.00,,---,0.07,VWS V14.01,2013-04-12 01:00:00,
2013-04-11 21:05:00,45.4,43.6,29.93,North,359,0.0,0.0,94,0.00,,---,0.07,VWS V14.01,2013-04-12 01:05:00,
2013-04-11 21:10:00,45.8,43.9,29.93,ESE,114,2.3,5.5,93,0.00,,---,0.07,VWS V14.01,2013-04-12 01:10:00,
2013-04-11 21:15:00,45.9,43.8,29.93,North,359,0.0,0.4,92,0.00,,---,0.07,VWS V14.01,2013-04-12 01:15:00,
2013-04-11 21:20:00,45.9,43.7,29.93,North,359,0.0,0.2,92,0.00,,---,0.07,VWS V14.01,2013-04-12 01:20:00,
2013-04-11 21:25:00,45.5,43.1,29.93,North,359,0.2,12.1,91,0.00,,---,0.07,VWS V14.01,2013-04-12 01:25:00,
2013-04-11 21:30:00,46.3,43.7,29.94,North,359,0.0,0.0,91,0.00,,---,0.07,VWS V14.01,2013-04-12 01:30:00,
2013-04-11 21:35:00,45.9,43.3,29.94,North,359,0.0,0.0,90,0.00,,---,0.07,VWS V14.01,2013-04-12 01:35:00,
2013-04-11 21:39:00,45.7,43.1,29.94,North,359,0.0,0.0,90,0.00,,---,0.07,VWS V14.01,2013-04-12 01:39:00,
2013-04-11 21:44:00,46.0,43.3,29.94,North,359,0.0,0.0,90,0.00,,---,0.07,VWS V14.01,2013-04-12 01:44:00,
2013-04-11 21:49:00,45.9,43.3,29.94,ENE,77,1.1,1.1,90,0.00,,---,0.07,VWS V14.01,2013-04-12 01:49:00,
2013-04-11 21:54:00,45.9,43.2,29.94,ESE,110,0.0,0.0,90,0.00,,---,0.07,VWS V14.01,2013-04-12 01:54:00,
2013-04-11 21:59:00,46.2,43.5,29.95,North,359,0.0,0.0,90,0.00,,---,0.07,VWS V14.01,2013-04-12 01:59:00,
2013-04-11 22:04:00,45.4,42.8,29.95,North,359,0.0,0.0,90,0.00,,---,0.07,VWS V14.01,2013-04-12 02:04:00,
2013-04-11 22:09:00,45.8,43.2,29.94,East,89,0.0,0.0,90,0.00,,---,0.07,VWS V14.01,2013-04-12 02:09:00,
2013-04-11 22:14:00,46.0,43.3,29.95,ENE,76,0.0,0.0,90,0.00,,---,0.07,VWS V14.01,2013-04-12 02:14:00,
2013-04-11 22:19:00,45.7,43.1,29.95,North,359,0.7,0.7,90,0.00,,---,0.07,VWS V14.01,2013-04-12 02:19:00,
2013-04-11 22:24:00,46.2,43.5,29.95,North,359,0.0,0.0,90,0.00,,---,0.07,VWS V14.01,2013-04-12 02:24:00,
2013-04-11 22:29:00,45.0,42.3,29.95,North,359,0.0,0.0,90,0.00,,---,0.07,VWS V14.01,2013-04-12 02:29:00,
2013-04-11 22:34:00,45.5,42.8,29.95,SW,215,9.8,11.7,90,0.00,,---,0.07,VWS V14.01,2013-04-12 02:34:00,
2013-04-11 22:39:00,45.3,42.6,29.95,North,359,0.2,0.2,90,0.00,,---,0.07,VWS V14.01,2013-04-12 02:39:00,
2013-04-11 22:44:00,45.4,42.8,29.94,North,359,0.0,0.0,90,0.00,,---,0.07,VWS V14.01,2013-04-12 02:44:00,
2013-04-11 22:49:00,45.2,42.5,29.94,North,359,0.0,0.0,90,0.00,,---,0.07,VWS V14.01,2013-04-12 02:49:00,
2013-04-11 22:54:00,45.3,42.8,29.95,North,359,0.0,0.0,91,0.00,,---,0.07,VWS V14.01,2013-04-12 02:54:00,
2013-04-11 22:59:00,45.4,42.8,29.94,North,359,0.0,0.0,91,0.00,,---,0.07,VWS V14.01,2013-04-12 02:59:00,
2013-04-11 23:04:00,45.1,42.5,29.95,North,359,0.0,0.0,91,0.00,,---,0.07,VWS V14.01,2013-04-12 03:04:00,
2013-04-11 23:09:00,44.7,42.1,29.95,North,359,6.5,15.1,90,0.00,,---,0.07,VWS V14.01,2013-04-12 03:09:00,
2013-04-11 23:14:00,44.7,42.1,29.95,North,359,0.0,0.5,90,0.00,,---,0.07,VWS V14.01,2013-04-12 03:14:00,
2013-04-11 23:19:00,44.7,42.0,29.95,East,84,0.0,0.6,90,0.00,,---,0.07,VWS V14.01,2013-04-12 03:19:00,
2013-04-11 23:24:00,44.6,41.8,29.95,North,359,0.0,20.8,90,0.00,,---,0.07,VWS V14.01,2013-04-12 03:24:00,
2013-04-11 23:29:00,44.6,41.8,29.94,North,359,0.0,0.0,90,0.00,,---,0.07,VWS V14.01,2013-04-12 03:29:00,
2013-04-11 23:34:00,45.6,42.7,29.94,North,359,0.0,0.6,90,0.00,,---,0.07,VWS V14.01,2013-04-12 03:34:00,
2013-04-11 23:39:00,44.7,41.8,29.94,South,186,0.0,0.0,90,0.00,,---,0.07,VWS V14.01,2013-04-12 03:39:00,
2013-04-11 23:44:00,44.6,41.6,29.94,South,186,0.0,0.0,89,0.00,,---,0.07,VWS V14.01,2013-04-12 03:44:00,
2013-04-11 23:49:00,44.9,42.0,29.94,South,186,0.0,0.0,89,0.00,,---,0.07,VWS V14.01,2013-04-12 03:49:00,
2013-04-11 23:54:00,45.2,42.2,29.93,ENE,76,0.0,0.0,89,0.00,,---,0.07,VWS V14.01,2013-04-12 03:54:00,
2013-04-11 23:59:00,44.3,41.2,29.93,ENE,76,0.0,0.4,89,0.00,,---,0.07,VWS V14.01,2013-04-12 03:59:00,